ON4LDM-13 Weather Reports


Display with metric or nautical units.
time (UTC)temp
F
wind
direction
speed
MPH
gust
MPH
rain 1hr
in
rain 24hr
in
rain mn
in
humidity
%
barometer
mb
20260502214004 58 172 1.0 4.0 0.00 0.01 0.01 71 1015.8
20260502213504 57 172 0.0 4.0 0.00 0.01 0.01 75 1015.9
20260502213004 55 159 0.0 2.0 0.00 0.01 0.01 81 1015.8
20260502212004 54 0 0.0 0.0 0.00 0.01 0.01 88 1015.8
20260502211004 54 0 0.0 0.0 0.00 0.01 0.01 88 1015.9
20260502210503 54 0 0.0 0.0 0.00 0.01 0.01 88 1016.0
20260502210004 54 0 0.0 0.0 0.00 0.01 0.01 88 1015.9
20260502205504 54 0 0.0 0.0 0.00 0.01 0.01 87 1016.0
20260502205003 54 0 0.0 0.0 0.00 0.01 0.01 87 1016.1
20260502204504 54 0 0.0 0.0 0.00 0.01 0.01 87 1016.1
20260502202504 55 0 0.0 0.0 0.00 0.01 0.01 86 1016.1
20260502202004 55 0 0.0 0.0 0.00 0.01 0.01 86 1016.1
20260502201004 56 0 0.0 0.0 0.00 0.01 0.01 86 1016.0
20260502200503 56 0 0.0 0.0 0.00 0.01 0.01 86 1016.1
20260502200004 57 0 0.0 0.0 0.00 0.01 0.01 86 1016.1
20260502195504 57 0 0.0 0.0 0.00 0.01 0.01 86 1016.2
20260502195003 57 0 0.0 0.0 0.00 0.01 0.01 85 1016.1
20260502194504 58 0 0.0 0.0 0.00 0.01 0.01 85 1016.1
20260502194004 58 0 0.0 0.0 0.00 0.01 0.01 84 1016.1
20260502193503 59 0 0.0 0.0 0.00 0.01 0.01 83 1016.1
20260502193004 59 0 0.0 0.0 0.00 0.01 0.01 83 1016.1
20260502192504 59 0 0.0 0.0 0.00 0.01 0.01 82 1016.1
20260502192003 60 0 0.0 0.0 0.00 0.01 0.01 82 1016.1
20260502191504 60 0 0.0 0.0 0.00 0.01 0.01 82 1016.1
20260502191004 61 0 0.0 0.0 0.00 0.01 0.01 81 1016.0
20260502190503 61 0 0.0 0.0 0.00 0.01 0.01 81 1015.9
20260502190004 62 0 0.0 0.0 0.00 0.01 0.01 81 1016.0
20260502185504 62 0 0.0 0.0 0.00 0.01 0.01 80 1016.0
20260502185004 62 0 0.0 0.0 0.00 0.01 0.01 79 1016.0
20260502184004 63 0 0.0 0.0 0.00 0.01 0.01 78 1015.9
20260502183504 64 0 0.0 0.0 0.00 0.01 0.01 78 1015.9
20260502182504 64 0 0.0 0.0 0.00 0.01 0.01 77 1016.0
20260502182004 64 0 0.0 0.0 0.00 0.01 0.01 77 1016.0
20260502181504 65 0 0.0 0.0 0.00 0.01 0.01 76 1016.0
20260502181003 65 0 0.0 0.0 0.00 0.01 0.01 76 1016.0
20260502180503 65 0 0.0 0.0 0.00 0.01 0.01 75 1016.0
20260502170503 70 290 1.0 8.0 0.00 0.01 0.01 64 1016.3
20260502164004 71 164 0.0 2.0 0.00 0.01 0.01 54 1016.3
20260502163004 72 166 0.0 1.0 0.00 0.01 0.01 53 1016.3
20260502162504 72 167 1.0 6.0 0.00 0.01 0.01 53 1016.5
20260502162003 72 168 1.0 6.0 0.00 0.01 0.01 52 1016.5
20260502161504 72 183 1.0 7.0 0.00 0.01 0.01 52 1016.4
20260502161004 72 176 2.0 7.0 0.00 0.01 0.01 51 1016.5
20260502160504 72 171 2.0 6.0 0.00 0.01 0.01 52 1016.5
20260502152004 71 152 1.0 5.0 0.00 0.01 0.01 55 1016.9
20260502151504 71 164 1.0 6.0 0.00 0.01 0.01 55 1016.9
20260502151003 72 177 0.0 6.0 0.00 0.01 0.01 55 1017.0
20260502150503 72 176 1.0 3.0 0.00 0.01 0.01 55 1017.2
20260502130504 74 167 4.0 10.0 0.00 0.01 0.01 60 1018.9
20260502123504 74 187 2.0 7.0 0.00 0.01 0.01 61 1019.0
20260502123004 73 185 3.0 8.0 0.00 0.01 0.01 61 1019.1
20260502122004 73 163 3.0 8.0 0.00 0.01 0.01 60 1019.2
20260502121504 73 169 3.0 8.0 0.00 0.01 0.01 61 1019.4
20260502120504 72 199 4.0 8.0 0.00 0.01 0.01 60 1019.5
20260502115504 72 171 3.0 8.0 0.00 0.01 0.01 60 1019.7
20260502115004 72 156 3.0 7.0 0.00 0.01 0.01 60 1019.8
20260502114504 72 142 2.0 6.0 0.00 0.01 0.01 59 1019.8
20260502113504 72 152 2.0 7.0 0.00 0.01 0.01 59 1020.1
20260502113004 71 178 3.0 8.0 0.00 0.01 0.01 59 1020.1
20260502111504 72 171 3.0 12.0 0.00 0.01 0.01 59 1020.4
20260502111003 71 174 3.0 9.0 0.00 0.01 0.01 60 1020.4
20260502110504 71 159 3.0 7.0 0.00 0.01 0.01 59 1020.4
20260502110004 71 148 3.0 5.0 0.00 0.01 0.01 60 1020.4
20260502105004 70 168 3.0 11.0 0.00 0.01 0.01 57 1020.7
20260502104004 70 164 2.0 7.0 0.00 0.01 0.01 59 1020.7
20260502103504 70 169 2.0 5.0 0.00 0.01 0.01 62 1020.7
20260502103004 69 176 2.0 5.0 0.00 0.01 0.01 64 1020.7
20260502102503 69 171 2.0 5.0 0.00 0.01 0.01 64 1020.8
20260502101504 67 189 1.0 5.0 0.00 0.01 0.01 64 1020.9
20260502101004 67 179 2.0 5.0 0.00 0.01 0.01 64 1020.9
20260502091503 65 90 2.0 7.0 0.00 0.01 0.01 68 1021.2
20260502091004 64 78 3.0 7.0 0.00 0.01 0.01 68 1021.3
20260502090504 64 82 2.0 6.0 0.00 0.01 0.01 67 1021.3
20260502071504 52 0 0.0 0.0 0.01 0.01 0.01 84 1021.6
20260502070004 52 55 1.0 3.0 0.01 0.01 0.01 83 1021.6
20260502065503 52 63 1.0 3.0 0.00 0.00 0.00 83 1021.6
20260502065004 52 62 1.0 3.0 0.00 0.00 0.00 83 1021.6
20260502064504 52 67 0.0 3.0 0.00 0.00 0.00 83 1022.0
20260502064003 51 60 0.0 2.0 0.00 0.00 0.00 83 1021.8
20260502063504 51 57 0.0 2.0 0.00 0.00 0.00 82 1021.9
20260502063004 51 56 0.0 2.0 0.00 0.00 0.00 83 1021.6
20260502062503 51 0 0.0 0.0 0.00 0.00 0.00 84 1021.6
20260502062003 51 0 0.0 0.0 0.00 0.00 0.00 83 1021.6
20260502061504 50 0 0.0 0.0 0.00 0.00 0.00 83 1021.5
20260502061004 50 42 0.0 2.0 0.00 0.00 0.00 84 1021.6
20260502060504 49 42 0.0 2.0 0.00 0.00 0.00 84 1021.6
20260502055004 49 81 2.0 4.0 0.00 0.00 0.00 85 1021.8
20260502054503 49 86 2.0 4.0 0.00 0.00 0.00 83 1021.9
20260502054003 49 90 1.0 3.0 0.00 0.00 0.00 82 1021.9
20260502053503 49 0 0.0 0.0 0.00 0.00 0.00 83 1021.8
20260502053004 49 0 0.0 0.0 0.00 0.00 0.00 83 1021.9
20260502052504 49 0 0.0 0.0 0.00 0.00 0.00 82 1022.2
20260502052003 49 0 0.0 0.0 0.00 0.00 0.00 83 1022.2
20260502051503 48 0 0.0 0.0 0.00 0.00 0.00 82 1022.2
20260502051003 48 0 0.0 0.0 0.00 0.00 0.00 82 1022.2
20260502050504 48 0 0.0 0.0 0.00 0.00 0.00 81 1022.3
20260502050004 47 0 0.0 0.0 0.00 0.00 0.00 82 1022.3
20260502045504 47 0 0.0 0.0 0.00 0.00 0.00 82 1022.4
20260502045003 47 0 0.0 0.0 0.00 0.00 0.00 83 1022.3
20260502044504 46 213 0.0 1.0 0.00 0.00 0.00 84 1022.4
20260502044004 46 226 0.0 3.0 0.00 0.00 0.00 84 1022.2
20260502043504 46 227 0.0 3.0 0.00 0.00 0.00 85 1022.4
20260502042503 45 0 0.0 0.0 0.00 0.00 0.00 85 1021.8
20260502042003 45 0 0.0 0.0 0.00 0.00 0.00 84 1021.8
20260502041504 45 0 0.0 0.0 0.00 0.00 0.00 84 1021.7
20260502041003 45 0 0.0 0.0 0.00 0.00 0.00 84 1021.7
20260502040503 45 0 0.0 0.0 0.00 0.00 0.00 84 1021.6
20260502040004 45 84 0.0 1.0 0.00 0.00 0.00 83 1021.6
20260502035504 45 84 0.0 1.0 0.00 0.00 0.00 84 1021.6
20260502035003 45 83 0.0 1.0 0.00 0.00 0.00 84 1021.5
20260502034503 44 84 0.0 2.0 0.00 0.00 0.00 84 1021.6
20260502034003 44 85 0.0 2.0 0.00 0.00 0.00 84 1021.7
20260502033503 44 85 0.0 2.0 0.00 0.00 0.00 84 1021.7
20260502033004 44 0 0.0 0.0 0.00 0.00 0.00 84 1021.7
20260502032504 44 0 0.0 0.0 0.00 0.00 0.00 84 1021.7
20260502032004 44 0 0.0 0.0 0.00 0.00 0.00 84 1021.8
20260502031003 43 0 0.0 0.0 0.00 0.00 0.00 84 1021.9
20260502030504 43 0 0.0 0.0 0.00 0.00 0.00 84 1021.8
20260502030004 43 0 0.0 0.0 0.00 0.00 0.00 84 1021.9
20260502025504 43 81 0.0 1.0 0.00 0.00 0.00 84 1022.0
20260502025003 44 81 0.0 1.0 0.00 0.00 0.00 84 1022.2
20260502024504 43 0 0.0 0.0 0.00 0.00 0.00 84 1022.2
20260502022503 42 234 1.0 7.0 0.00 0.00 0.00 86 1022.7
20260502022004 42 224 1.0 7.0 0.00 0.00 0.00 86 1022.8
20260502021504 42 0 0.0 0.0 0.00 0.00 0.00 85 1022.0
20260502021003 42 0 0.0 0.0 0.00 0.00 0.00 85 1021.9
20260502020503 42 0 0.0 0.0 0.00 0.00 0.00 85 1022.0
20260502020004 42 118 0.0 1.0 0.00 0.00 0.00 85 1022.1
20260502015503 42 118 0.0 1.0 0.00 0.00 0.00 85 1022.0
20260502015004 42 0 0.0 0.0 0.00 0.00 0.00 85 1022.0
20260502014504 42 0 0.0 0.0 0.00 0.00 0.00 85 1022.1
20260502014003 42 0 0.0 0.0 0.00 0.00 0.00 84 1022.1
20260502013504 42 0 0.0 0.0 0.00 0.00 0.00 84 1022.1
20260502013003 42 0 0.0 0.0 0.00 0.00 0.00 84 1022.2
20260502012004 42 0 0.0 0.0 0.00 0.00 0.00 84 1022.2
20260502011004 42 0 0.0 0.0 0.00 0.00 0.00 83 1022.3
20260502010503 43 0 0.0 0.0 0.00 0.00 0.00 83 1022.4
20260502010004 43 0 0.0 0.0 0.00 0.00 0.00 83 1022.4
20260502005504 43 0 0.0 0.0 0.00 0.00 0.00 82 1022.4
20260502005003 43 0 0.0 0.0 0.00 0.00 0.00 82 1022.4
20260502004504 43 0 0.0 0.0 0.00 0.00 0.00 83 1022.5
20260502004004 43 0 0.0 0.0 0.00 0.00 0.00 82 1022.4
20260502003503 43 0 0.0 0.0 0.00 0.00 0.00 82 1022.5
20260502002504 43 0 0.0 0.0 0.00 0.00 0.00 82 1022.4
20260502002003 44 106 0.0 1.0 0.00 0.00 0.00 81 1022.5
20260502001504 44 106 0.0 1.0 0.00 0.00 0.00 81 1022.5
20260502000503 44 122 0.0 2.0 0.00 0.00 0.00 80 1022.7
20260501234504 43 144 0.0 2.0 0.00 0.00 0.00 84 1023.1
20260501234004 42 162 0.0 2.0 0.00 0.00 0.00 85 1023.1
20260501233503 42 185 0.0 2.0 0.00 0.00 0.00 84 1023.1
20260501233004 42 0 0.0 0.0 0.00 0.00 0.00 84 1022.9
20260501232504 42 0 0.0 0.0 0.00 0.00 0.00 83 1022.8
20260501231503 42 0 0.0 0.0 0.00 0.00 0.00 82 1022.8
20260501231003 42 0 0.0 0.0 0.00 0.00 0.00 82 1022.8
20260501230503 42 0 0.0 0.0 0.00 0.00 0.00 83 1022.8
20260501230003 42 0 0.0 0.0 0.00 0.00 0.00 82 1022.9
20260501225503 43 0 0.0 0.0 0.00 0.00 0.00 82 1022.9
20260501225003 43 0 0.0 0.0 0.00 0.00 0.00 81 1023.1
20260501224003 43 0 0.0 0.0 0.00 0.00 0.00 81 1023.3
20260501223004 44 0 0.0 0.0 0.00 0.00 0.00 81 1023.2
20260501222504 44 0 0.0 0.0 0.00 0.00 0.00 81 1023.3
20260501222003 44 0 0.0 0.0 0.00 0.00 0.00 81 1023.3
20260501221504 44 0 0.0 0.0 0.00 0.00 0.00 80 1023.3
20260501221003 44 0 0.0 0.0 0.00 0.00 0.00 80 1023.4
20260501220503 44 0 0.0 0.0 0.00 0.00 0.00 79 1023.4
20260501220007 44 0 0.0 0.0 0.00 0.00 0.00 79 1023.4
20260501215503 45 118 0.0 1.0 0.00 0.00 0.00 79 1023.3
20260501215003 45 118 0.0 1.0 0.00 0.00 0.00 79 1023.4
20260501214504 45 0 0.0 0.0 0.00 0.00 0.00 79 1023.4